Time,TemperatureF,DewpointF,PressureIn,WindDirection,WindDirectionDegrees,WindSpeedMPH,WindSpeedGustMPH,Humidity,HourlyPrecipIn,Conditions,Clouds,dailyrainin,SolarRadiationWatts/m^2,SoftwareType,DateUTC
2013-12-26 00:42:00,26.0,11.0,-100.00,North,-999,0.0,3.0,53,-99.99,,,0.00,1.000000,,2013-12-26 07:42:00,
2013-12-26 03:43:00,25.0,10.0,-100.00,North,-999,0.0,1.0,53,-99.99,,,0.00,1.000000,,2013-12-26 10:43:00,
2013-12-26 04:43:00,23.0,10.0,-100.00,North,-999,0.0,2.0,57,-99.99,,,0.00,1.000000,,2013-12-26 11:43:00,
2013-12-26 04:52:00,23.0,10.0,-100.00,North,-999,0.0,2.0,57,-99.99,,,0.00,1.000000,,2013-12-26 11:52:00,
2013-12-26 05:02:00,23.0,10.0,-100.00,North,-999,0.0,2.0,57,-99.99,,,0.00,1.000000,,2013-12-26 12:02:00,
2013-12-26 05:12:00,23.0,10.0,-100.00,North,-999,0.0,2.0,57,-99.99,,,0.00,1.000000,,2013-12-26 12:12:00,
2013-12-26 05:42:00,25.0,10.0,-100.00,North,-999,0.0,2.0,53,-99.99,,,0.00,1.000000,,2013-12-26 12:42:00,
2013-12-26 06:12:00,25.0,10.0,-100.00,North,-999,0.0,2.0,53,-99.99,,,0.00,1.000000,,2013-12-26 13:12:00,
2013-12-26 06:42:00,24.0,9.0,-100.00,North,-999,0.0,0.0,53,-99.99,,,0.00,1.000000,,2013-12-26 13:42:00,
2013-12-26 06:52:00,24.0,9.0,-100.00,North,-999,0.0,0.0,53,-99.99,,,0.00,1.000000,,2013-12-26 13:52:00,
2013-12-26 07:01:00,24.0,9.0,-100.00,North,-999,0.0,0.0,53,-99.99,,,0.00,1.000000,,2013-12-26 14:01:00,
2013-12-26 07:11:00,24.0,9.0,-100.00,North,-999,0.0,0.0,53,-99.99,,,0.00,1.000000,,2013-12-26 14:11:00,
2013-12-26 07:42:00,23.0,10.0,-100.00,North,-999,0.0,2.0,57,-99.99,,,0.00,1.000000,,2013-12-26 14:42:00,
2013-12-26 07:52:00,23.0,10.0,-100.00,North,-999,0.0,2.0,57,-99.99,,,0.00,1.000000,,2013-12-26 14:52:00,
2013-12-26 08:02:00,23.0,10.0,-100.00,North,-999,0.0,2.0,57,-99.99,,,0.00,1.000000,,2013-12-26 15:02:00,
2013-12-26 08:43:00,26.0,11.0,-100.00,North,3,1.0,3.0,53,0.00,,,0.00,14.000000,,2013-12-26 15:43:00,
2013-12-26 08:53:00,26.0,11.0,-100.00,North,3,1.0,3.0,53,0.00,,,0.00,14.000000,,2013-12-26 15:53:00,
2013-12-26 09:03:00,26.0,11.0,-100.00,North,3,1.0,3.0,53,0.00,,,0.00,14.000000,,2013-12-26 16:03:00,
2013-12-26 09:12:00,26.0,11.0,-100.00,North,3,1.0,3.0,53,0.00,,,0.00,14.000000,,2013-12-26 16:12:00,
2013-12-26 09:53:00,32.0,12.0,-100.00,NNE,18,2.0,5.0,43,0.00,,,-99.99,221.000000,,2013-12-26 16:53:00,
2013-12-26 10:02:00,32.0,12.0,-100.00,NNE,18,2.0,5.0,43,0.00,,,-99.99,221.000000,,2013-12-26 17:02:00,
2013-12-26 10:12:00,32.0,12.0,-100.00,NNE,18,2.0,5.0,43,0.00,,,-99.99,221.000000,,2013-12-26 17:12:00,
2013-12-26 10:43:00,35.0,11.0,-100.00,WSW,242,2.0,5.0,36,0.00,,,0.00,423.000000,,2013-12-26 17:43:00,
2013-12-26 10:52:00,35.0,11.0,-100.00,WSW,242,2.0,5.0,36,0.00,,,0.00,423.000000,,2013-12-26 17:52:00,
2013-12-26 11:02:00,35.0,11.0,-100.00,WSW,242,2.0,5.0,36,0.00,,,0.00,423.000000,,2013-12-26 18:02:00,
2013-12-26 11:12:00,35.0,11.0,-100.00,WSW,242,2.0,5.0,36,0.00,,,0.00,423.000000,,2013-12-26 18:12:00,
2013-12-26 11:42:00,34.0,11.0,-100.00,WSW,248,4.0,7.0,37,0.00,,,-99.99,551.000000,,2013-12-26 18:42:00,
2013-12-26 11:52:00,34.0,11.0,-100.00,WSW,248,4.0,7.0,37,0.00,,,-99.99,551.000000,,2013-12-26 18:52:00,
2013-12-26 12:02:00,34.0,11.0,-100.00,WSW,248,4.0,7.0,37,0.00,,,-99.99,551.000000,,2013-12-26 19:02:00,
2013-12-26 12:11:00,34.0,11.0,-100.00,WSW,248,4.0,7.0,37,0.00,,,-99.99,551.000000,,2013-12-26 19:11:00,
2013-12-26 12:42:00,35.0,10.0,-100.00,WSW,250,4.0,9.0,35,0.00,,,0.00,615.000000,,2013-12-26 19:42:00,
2013-12-26 12:52:00,35.0,10.0,-100.00,WSW,250,4.0,9.0,35,0.00,,,0.00,615.000000,,2013-12-26 19:52:00,
2013-12-26 13:02:00,35.0,10.0,-100.00,WSW,250,4.0,9.0,35,0.00,,,0.00,615.000000,,2013-12-26 20:02:00,
2013-12-26 13:12:00,35.0,10.0,-100.00,WSW,250,4.0,9.0,35,0.00,,,0.00,615.000000,,2013-12-26 20:12:00,
2013-12-26 13:42:00,38.0,13.0,-100.00,WSW,254,4.0,8.0,35,0.00,,,0.00,627.000000,,2013-12-26 20:42:00,
2013-12-26 13:52:00,38.0,13.0,-100.00,WSW,254,4.0,8.0,35,0.00,,,0.00,627.000000,,2013-12-26 20:52:00,
2013-12-26 14:02:00,38.0,13.0,-100.00,WSW,254,4.0,8.0,35,0.00,,,0.00,627.000000,,2013-12-26 21:02:00,
2013-12-26 14:11:00,38.0,13.0,-100.00,WSW,254,4.0,8.0,35,0.00,,,0.00,627.000000,,2013-12-26 21:11:00,
2013-12-26 14:43:00,38.0,13.0,-100.00,WSW,240,4.0,8.0,36,0.00,,,0.00,494.000000,,2013-12-26 21:43:00,
2013-12-26 14:53:00,38.0,13.0,-100.00,WSW,240,4.0,8.0,36,0.00,,,0.00,494.000000,,2013-12-26 21:53:00,
2013-12-26 15:03:00,38.0,13.0,-100.00,WSW,240,4.0,8.0,36,0.00,,,0.00,494.000000,,2013-12-26 22:03:00,
2013-12-26 15:12:00,38.0,13.0,-100.00,WSW,240,4.0,8.0,36,0.00,,,0.00,494.000000,,2013-12-26 22:12:00,
2013-12-26 15:43:00,37.0,14.0,-100.00,WSW,251,4.0,8.0,38,0.00,,,0.00,395.000000,,2013-12-26 22:43:00,
2013-12-26 15:52:00,37.0,14.0,-100.00,WSW,251,4.0,8.0,38,0.00,,,0.00,395.000000,,2013-12-26 22:52:00,
2013-12-26 16:03:00,37.0,14.0,-100.00,WSW,251,4.0,8.0,38,0.00,,,0.00,395.000000,,2013-12-26 23:03:00,
2013-12-26 16:12:00,37.0,14.0,-100.00,WSW,251,4.0,8.0,38,0.00,,,0.00,395.000000,,2013-12-26 23:12:00,
2013-12-26 16:42:00,35.0,13.0,-100.00,WSW,239,4.0,8.0,40,0.00,,,0.00,220.000000,,2013-12-26 23:42:00,
2013-12-26 16:53:00,35.0,13.0,-100.00,WSW,239,4.0,8.0,40,0.00,,,0.00,220.000000,,2013-12-26 23:53:00,
2013-12-26 17:02:00,35.0,13.0,-100.00,WSW,239,4.0,8.0,40,0.00,,,0.00,220.000000,,2013-12-27 00:02:00,
2013-12-26 17:11:00,35.0,13.0,-100.00,WSW,239,4.0,8.0,40,0.00,,,0.00,220.000000,,2013-12-27 00:11:00,
2013-12-26 17:42:00,29.0,11.0,-100.00,SW,236,2.0,7.0,47,0.00,,,0.00,36.000000,,2013-12-27 00:42:00,
2013-12-26 17:52:00,29.0,11.0,-100.00,SW,236,2.0,7.0,47,0.00,,,0.00,36.000000,,2013-12-27 00:52:00,
2013-12-26 18:02:00,29.0,11.0,-100.00,SW,236,2.0,7.0,47,0.00,,,0.00,36.000000,,2013-12-27 01:02:00,
2013-12-26 18:11:00,29.0,11.0,-100.00,SW,236,2.0,7.0,47,0.00,,,0.00,36.000000,,2013-12-27 01:11:00,
2013-12-26 18:42:00,27.0,12.0,-100.00,West,270,3.0,6.0,53,0.00,,,0.00,1.000000,,2013-12-27 01:42:00,
2013-12-26 18:52:00,27.0,12.0,-100.00,West,270,3.0,6.0,53,0.00,,,0.00,1.000000,,2013-12-27 01:52:00,
2013-12-26 19:01:00,27.0,12.0,-100.00,West,270,3.0,6.0,53,0.00,,,0.00,1.000000,,2013-12-27 02:01:00,
2013-12-26 19:11:00,27.0,12.0,-100.00,West,270,3.0,6.0,53,0.00,,,0.00,1.000000,,2013-12-27 02:11:00,
2013-12-26 19:42:00,27.0,12.0,-100.00,North,-999,0.0,4.0,53,0.00,,,0.00,1.000000,,2013-12-27 02:42:00,
2013-12-26 19:52:00,27.0,12.0,-100.00,North,-999,0.0,4.0,53,0.00,,,0.00,1.000000,,2013-12-27 02:52:00,
2013-12-26 20:02:00,27.0,12.0,-100.00,North,-999,0.0,4.0,53,0.00,,,0.00,1.000000,,2013-12-27 03:02:00,
2013-12-26 20:11:00,27.0,12.0,-100.00,North,-999,0.0,4.0,53,0.00,,,0.00,1.000000,,2013-12-27 03:11:00,
2013-12-26 20:43:00,27.0,13.0,-100.00,SW,221,3.0,4.0,55,0.00,,,0.00,1.000000,,2013-12-27 03:43:00,
2013-12-26 20:53:00,27.0,13.0,-100.00,SW,221,3.0,4.0,55,0.00,,,0.00,1.000000,,2013-12-27 03:53:00,
2013-12-26 21:03:00,27.0,13.0,-100.00,SW,221,3.0,4.0,55,0.00,,,0.00,1.000000,,2013-12-27 04:03:00,
2013-12-26 21:12:00,27.0,13.0,-100.00,SW,221,3.0,4.0,55,0.00,,,0.00,1.000000,,2013-12-27 04:12:00,
2013-12-26 21:43:00,28.0,13.0,-100.00,SSW,208,3.0,4.0,53,0.00,,,0.00,1.000000,,2013-12-27 04:43:00,
2013-12-26 21:53:00,28.0,13.0,-100.00,SSW,208,3.0,4.0,53,0.00,,,0.00,1.000000,,2013-12-27 04:53:00,
2013-12-26 22:02:00,28.0,13.0,-100.00,SSW,208,3.0,4.0,53,0.00,,,0.00,1.000000,,2013-12-27 05:02:00,
2013-12-26 22:12:00,28.0,13.0,-100.00,SSW,208,3.0,4.0,53,0.00,,,0.00,1.000000,,2013-12-27 05:12:00,
2013-12-26 23:43:00,27.0,9.0,-100.00,East,84,3.0,6.0,46,-99.99,,,0.00,1.000000,,2013-12-27 06:43:00,
2013-12-26 23:52:00,27.0,9.0,-100.00,East,84,3.0,6.0,46,-99.99,,,0.00,1.000000,,2013-12-27 06:52:00,